Regional Weather Roundup
Issued by NWS

Home | Current Version | Previous Version | Graphics & Text | Print | Product List | Glossary On
Versions: 1 2 3 4 5 6 7 8 9 10 11 12 13 14 15 16 17 18 19 20 21 22 23 24 25 26 27 28 29 30 31 32 33 34 35 36 37 38 39 40 41 42 43 44 45 46 47 48 49 50
000
ASUS43 KFSD 261910
RWRSD

WEATHER ROUNDUP FOR SOUTH DAKOTA
NATIONAL WEATHER SERVICE SIOUX FALLS SD
200 PM CDT TUE MAY 26 2015

NOTE: "FAIR" INDICATES FEW OR NO CLOUDS BELOW 12,000 FEET WITH NO
SIGNIFICANT WEATHER AND/OR OBSTRUCTIONS TO VISIBILITY.


SDZ001>005-009-010-012>017-262000-
NORTHWEST AND NORTH CENTRAL SOUTH DAKOTA

CITY           SKY/WX    TMP DP  RH WIND       PRES   REMARKS
BUFFALO          N/A     71  47  42 S16       29.90F
FAITH            N/A     72  49  44 CALM      29.95F
MOBRIDGE       SUNNY     76  54  46 NW12      29.88F
$$

SDZ012>016-024>037-041>051-057-063-072>074-262000-
SOUTHWEST AND SOUTH CENTRAL SOUTH DAKOTA

CITY           SKY/WX    TMP DP  RH WIND       PRES   REMARKS
RAPID CTY ARPT MOSUNNY   68  46  45 S8G20     29.98F
PIERRE         SUNNY     74  51  44 NW14      29.91S
CUSTER         LGT RAIN  53  47  79 SE7       30.04S
ELLSWORTH AFB  SUNNY     67  48  50 S13       29.97F
PHILIP         MOSUNNY   70  48  45 S6        29.95F
PINE RIDGE     CLOUDY    65  45  48 CALM      30.00F
SPEARFISH      FAIR      59  50  72 S13       30.00R
WINNER         FAIR      73  51  46 N14       29.93S
$$

SDZ004>011-016>023-039-040-262000-
NORTHEAST SOUTH DAKOTA

CITY           SKY/WX    TMP DP  RH WIND       PRES   REMARKS
ABERDEEN       PTSUNNY   76  56  49 N8        29.85S
WATERTOWN      CLOUDY    68  51  54 NE10      29.86S
BROOKINGS      CLOUDY    64  52  63 N14G21    29.85S
SISSETON         N/A     72  52  49 CALM      29.83S
$$

SDZ017-020-022-023-036>040-048>070-262000-
SOUTHEAST SOUTH DAKOTA

CITY           SKY/WX    TMP DP  RH WIND       PRES   REMARKS
SIOUX FALLS    CLOUDY    62  53  72 N12       29.83F
HURON          PTSUNNY   76  54  46 VRB7G17   29.84F
CHAMBERLAIN    PTSUNNY   70  49  48 N9        29.90S
MITCHELL       PTSUNNY   70  53  54 N12       29.87S
YANKTON        MOSUNNY   70  54  56 N16G22    29.83F
$$

ABBREVIATIONS USED IN REMARKS
   TC - TEMPERATURE IN CELSIUS
  WCI - WIND CHILL INDEX
   HX - HEAT INDEX
  VSB - VISIBILITY



USA.gov is the U.S. government's official web portal to all federal, state and local government web resources and services.